User: anonymous   Login
Location: CNYAC Observatory
(43.2150°N, 74.9500°W)
Time: 12:44:31
(UTC-04:00)
Language:

Meteor 1-22 Rocket - Orbit

View from above orbital plane
View from above orbital plane
View from above satellite
View from above satellite

Ground track
Ground track

The orbit data is extracted from the following two-line orbital elements,

1  8294U 75087B   17201.95904065 +.00000064 +00000-0 +29374-4 0  9998
2  8294 081.2086 349.6375 0105593 307.8588 051.3064 14.08558043149358
Epoch (UTC): 20 July 2017 23:01:01
Eccentricity: 0.0105593
inclination: 81.2086°
perigee height: 788 km
apogee height: 941 km
right ascension of ascending node: 349.6375°
argument of perigee: 307.8588°
revolutions per day: 14.08558043
mean anomaly at epoch: 51.3064°
orbit number at epoch: 14935

The dashed part of the orbit path shows where the satellite is in the earth's shadow,  

DLR